Regional Weather Roundup
Issued by NWS

Home | Current Version | Previous Version | Text Only | Print | Product List | Glossary On
Versions: 1 2 3 4 5 6 7 8 9 10 11 12 13 14 15 16 17 18 19 20 21 22 23 24 25 26 27 28 29 30 31 32 33 34 35 36 37 38 39 40 41 42 43 44 45 46 47 48 49 50
000
ASUS42 KFFC 241703
RWRGA
WEATHER ROUNDUP FOR GEORGIA
NATIONAL WEATHER SERVICE PEACHTREE CITY GA
100 PM EDT TUE MAY 24 2016

NOTE: "FAIR" INDICATES FEW OR NO CLOUDS BELOW 12,000 FEET WITH NO
SIGNIFICANT WEATHER AND/OR OBSTRUCTIONS TO VISIBILITY.

* = USE WITH CAUTION. THE STATIONS MARKED WITH AN ASTERISK MAY NOT
REPORT WEATHER SUCH AS PRECIPITATION, FOG, OR THUNDER AND ARE NOT
QUALITY CONTROLLED BY NWS.

THE REMARK "TC" DENOTES TEMPERATURE READING IN DEGREES CELSIUS.

GAZ001>058-241800-
NORTH GEORGIA

CITY           SKY/WX    TMP DP  RH WIND       PRES   REMARKS
ATLANTA        PTSUNNY   81  52  36 VRB3      30.17S
ATHENS         SUNNY     80  59  48 CALM      30.17S
CHAMBLEE       SUNNY     82  54  37 VRB6      30.17F
PEACHTREE CITY SUNNY     81  49  32 VRB3      30.17S
ROME           SUNNY     80  55  42 S5        30.15F
WEST ATLANTA   MOSUNNY   81  56  42 VRB6      30.16F
GAINESVILLE    SUNNY     77  53  43 CALM      30.20F
CARTERSVILLE   SUNNY     81  56  42 CALM      30.17F


CITY           SKY/WX    TMP DP  RH WIND       PRES   REMARKS
DALTON*        SUNNY     77  54  44 CALM      30.16F
LAWRENCEVILLE* SUNNY     75  57  53 CALM      30.18F
KENNESAW*      SUNNY     79  55  44 CALM      30.14F
CANTON*        SUNNY     77  43  29 CALM      30.19F
BLAIRSVILLE*     N/A    N/A N/A N/A MISG      30.20F
$$

GAZ059>098-102>109-241800-
CENTRAL GEORGIA

CITY           SKY/WX    TMP DP  RH WIND       PRES   REMARKS
AUGUSTA-BUSH   SUNNY     82  58  43 S3        30.15S
AUGUSTA-DANIEL SUNNY     81  57  43 VRB5      30.17S
COLUMBUS       SUNNY     81  52  36 VRB5      30.16R
MACON          SUNNY     84  51  31 W6        30.15F


CITY           SKY/WX    TMP DP  RH WIND       PRES   REMARKS
LAGRANGE*      MOSUNNY   84  57  39 CALM      30.17S
SYLVANIA*      SUNNY     84  60  43 CALM      30.17S
MILLEDGEVILLE* SUNNY     81  59  47 CALM      30.16F
$$

GAZ099>101-110>166-241800-
SOUTH GEORGIA

CITY           SKY/WX    TMP DP  RH WIND       PRES   REMARKS
SAVANNAH       MOSUNNY   81  58  45 CALM      30.16F
VALDOSTA       MOSUNNY   83  58  42 E3        30.15R
ALMA           MOSUNNY   85  49  28 CALM      30.15S
ST SIMONS      CLOUDY    79  66  64 E10       30.16S
ALBANY         MOSUNNY   87  45  23 VRB7      30.16S
BRUNSWICK      PTSUNNY   84  63  48 E10       30.17S


CITY           SKY/WX    TMP DP  RH WIND       PRES   REMARKS
BAINBRIDGE*    SUNNY     84  50  30 CALM      30.15S
MOULTRIE*      MOSUNNY   82  52  34 CALM      30.16S
VIDALIA*       MOSUNNY   82  54  36 SW3       30.16S
WAYCROSS*      MOSUNNY   85  54  34 E3        30.15S
DOUGLAS*       CLOUDY    82  48  30 N6        30.17S
$$



USA.gov is the U.S. government's official web portal to all federal, state and local government web resources and services.